Location: Bemmer
(51.5498°N, 5.6249°E)
Time: 12:51:40
(UTC+00:00)

Cosmos 1980 Rocket - Pass Details

Date: 03 March 2021
Orbit: 828 x 851 km, 71.0° (Epoch: 17 April)

Event Time Altitude Azimuth Distance (km) Brightness Sun altitude
Rises 18:54:39 0° 248° (WSW) 3,398 6.4 -15.2°
Reaches altitude 10° 18:57:26 10° 260° (W) 2,469 5.8 -15.7°
Maximum altitude 19:02:18 28° 319° (NW) 1,536 4.1 -16.4°
Drops below altitude 10° 19:07:12 10° 18° (NNE) 2,489 4.6 -17.1°
Sets 19:10:01 0° 30° (NNE) 3,429 5.2 -17.6°
